Regional Weather Roundup
Issued by NWS Kansas City/Pleasant Hill, MO

Home | Current Version | Previous Version | Text Only | Print | Product List | Glossary On
Versions: 1 2 3 4 5 6 7 8 9 10 11 12 13 14 15 16 17 18 19 20 21 22 23 24 25 26 27 28 29 30 31 32 33 34 35 36 37 38 39 40 41 42 43 44 45 46 47 48 49 50
000
ASUS43 KEAX 222111
RWREAX

WEATHER ROUNDUP FOR EASTERN KANSAS AND NORTHWEST MISSOURI
NATIONAL WEATHER SERVICE KANSAS CITY/PLEASANT HILL MO
400 PM CDT FRI MAY 22 2015

KSZ040-057-103>105-MOZ028-029-037-043-222200-
...KANSAS CITY METROPOLITAN AREA...

CITY           SKY/WX    TMP DP  RH WIND       PRES   REMARKS
K.C. INTL      CLOUDY    66  48  52 SE10      30.23S
K.C. DOWNTOWN  CLOUDY    68  45  43 SE7       30.22S
LEES SUMMIT    CLOUDY    65  47  52 SE9       30.23F
OLATHE - IXD   CLOUDY    63  48  58 SE8       30.24S
OLATHE - OJC   CLOUDY    62  49  62 S8        30.23R
LAWRENCE       CLOUDY    63  46  54 SE10      30.23F

$$

MOZ001>008-011>017-020>025-030>033-038>040-044>046-053-054-222200-
...NORTHERN AND CENTRAL MISSOURI...

CITY           SKY/WX    TMP DP  RH WIND       PRES   REMARKS
ST. JOSEPH     CLOUDY    65  48  54 CALM      30.23F
MOSBY          CLOUDY    64  46  52 E6        30.23F
WARRENSBURG    CLOUDY    64  46  52 SE8       30.23F
WHITEMAN AFB   CLOUDY    66  50  56 S5        30.23F
CLINTON        CLOUDY    66  52  59 SE7       30.23F
SEDALIA        PTSUNNY   67  50  54 SE6       30.26F
WARSAW         NOT AVBL
CHILLICOTHE      N/A     66  55  67 SW5       30.26S
KIRKSVILLE     CLOUDY    69  54  58 W5        30.23F

$$

MOZ041-047>049-056>058-063>065-088>090-097-222200-
...EASTERN AND SOUTHERN MISSOURI...

CITY           SKY/WX    TMP DP  RH WIND       PRES   REMARKS
ST. LOUIS INTL CLOUDY    73  49  42 W9        30.24S
SPIRIT OF STL  CLOUDY    71  52  50 W5        30.23S
COLUMBIA       PTSUNNY   69  53  56 VRB3      30.24F
JEFFERSON CITY MOSUNNY   71  48  43 S7        30.24F
ROLLA          PTSUNNY   69  51  52 S3        30.25F
OSAGE BEACH    CLOUDY    70  46  43 S5        30.25S
SPRINGFIELD    CLOUDY    67  47  48 E7        30.24F
BRANSON        CLOUDY    63  48  59 E6        30.27R
JOPLIN         CLOUDY    65  49  56 SE10      30.21F
WEST PLAINS    CLOUDY    65  45  48 SE7       30.27F

$$

IAZ060-094-KSZ022-034>040-054-083-096-NEZ052-066-093-222200-
...KANSAS...SOUTHEAST NEBRASKA AND IOWA...

CITY           SKY/WX    TMP DP  RH WIND       PRES   REMARKS
TOPEKA         CLOUDY    63  47  55 SE10      30.22F
MANHATTAN      CLOUDY    66  50  56 SE10      30.19F
EMPORIA        CLOUDY    61  50  67 E5        30.19F
CHANUTE        CLOUDY    63  48  58 SE12      30.21F
WICHITA        CLOUDY    60  55  83 SE12      30.16F
OMAHA          LGT RAIN  61  48  62 SW9       30.25R
LINCOLN        CLOUDY    64  45  49 SE10      30.21F
FALLS CITY     CLOUDY    66  49  54 SE6       30.22F
LAMONI         CLOUDY    70  49  47 SW8       30.23S
DES MOINES     CLOUDY    74  36  25 S3        30.20F

$$




USA.gov is the U.S. government's official web portal to all federal, state and local government web resources and services.